| time (UTC) | temp F | wind direction | speed knots | gust knots | rain 1hr in | rain 24hr in | rain mn in | humidity % | barometer mb |
| 20260504232007 | 81 | 190 | 10.4 | 12.2 | 0.00 | 0.00 | 0.00 | 62 | 1010.4 |
| 20260504231503 | 80 | 199 | 7.0 | 8.7 | 0.00 | 0.00 | 0.00 | 61 | 1010.4 |
| 20260504230959 | 81 | 171 | 10.4 | 12.2 | 0.00 | 0.00 | 0.00 | 63 | 1010.6 |
| 20260504230455 | 81 | 178 | 7.0 | 9.6 | 0.00 | 0.00 | 0.00 | 63 | 1010.6 |
| 20260504225955 | 80 | 171 | 12.2 | 15.6 | 0.00 | 0.00 | 0.00 | 62 | 1010.6 |
| 20260504225451 | 81 | 130 | 4.3 | 7.8 | 0.00 | 0.00 | 0.00 | 63 | 1010.8 |
| 20260504224948 | 81 | 131 | 9.6 | 13.0 | 0.00 | 0.00 | 0.00 | 63 | 1010.9 |
| 20260504224445 | 81 | 174 | 9.6 | 12.2 | 0.00 | 0.00 | 0.00 | 62 | 1011.0 |
| 20260504223942 | 81 | 224 | 5.2 | 7.8 | 0.00 | 0.00 | 0.00 | 62 | 1010.9 |
| 20260504223438 | 81 | 182 | 8.7 | 11.3 | 0.00 | 0.00 | 0.00 | 61 | 1010.9 |
| 20260504222933 | 81 | 217 | 7.8 | 9.6 | 0.00 | 0.00 | 0.00 | 61 | 1010.6 |
| 20260504222432 | 81 | 187 | 10.4 | 14.8 | 0.00 | 0.00 | 0.00 | 62 | 1011.1 |
| 20260504221929 | 81 | 165 | 13.9 | 18.2 | 0.00 | 0.00 | 0.00 | 61 | 1011.0 |
| 20260504221426 | 81 | 127 | 7.0 | 12.2 | 0.00 | 0.00 | 0.00 | 62 | 1011.1 |
| 20260504220923 | 81 | 194 | 7.0 | 8.7 | 0.00 | 0.00 | 0.00 | 62 | 1011.1 |
| 20260504220419 | 81 | 128 | 3.5 | 5.2 | 0.00 | 0.00 | 0.00 | 63 | 1010.9 |
| 20260504215916 | 81 | 196 | 7.0 | 7.8 | 0.00 | 0.00 | 0.00 | 63 | 1011.0 |
| 20260504215413 | 82 | 187 | 9.6 | 13.0 | 0.00 | 0.00 | 0.00 | 61 | 1011.1 |
| 20260504214909 | 81 | 196 | 7.8 | 11.3 | 0.00 | 0.00 | 0.00 | 62 | 1011.1 |
| 20260504214406 | 80 | 164 | 9.6 | 13.0 | 0.00 | 0.00 | 0.00 | 62 | 1011.1 |
| 20260504213903 | 80 | 149 | 7.0 | 11.3 | 0.00 | 0.00 | 0.00 | 63 | 1011.1 |
| 20260504213359 | 80 | 215 | 3.5 | 5.2 | 0.00 | 0.00 | 0.00 | 63 | 1011.3 |
| 20260504212856 | 80 | 228 | 7.0 | 7.8 | 0.00 | 0.00 | 0.00 | 63 | 1011.4 |
| 20260504212352 | 80 | 145 | 8.7 | 12.2 | 0.00 | 0.00 | 0.00 | 62 | 1011.6 |
| 20260504211850 | 80 | 191 | 8.7 | 11.3 | 0.00 | 0.00 | 0.00 | 62 | 1011.6 |
| 20260504211346 | 80 | 180 | 5.2 | 7.0 | 0.00 | 0.00 | 0.00 | 62 | 1011.8 |
| 20260504210844 | 80 | 197 | 8.7 | 11.3 | 0.00 | 0.00 | 0.00 | 62 | 1011.9 |
| 20260504210340 | 80 | 178 | 3.5 | 7.8 | 0.00 | 0.00 | 0.00 | 63 | 1011.9 |
| 20260504205837 | 81 | 132 | 4.3 | 7.0 | 0.00 | 0.00 | 0.00 | 62 | 1012.3 |
| 20260504205335 | 80 | 187 | 9.6 | 12.2 | 0.00 | 0.00 | 0.00 | 62 | 1012.2 |
| 20260504204833 | 80 | 169 | 10.4 | 13.0 | 0.00 | 0.00 | 0.00 | 61 | 1012.3 |
| 20260504204331 | 80 | 173 | 8.7 | 13.0 | 0.00 | 0.00 | 0.00 | 62 | 1012.3 |
| 20260504203830 | 80 | 195 | 8.7 | 8.7 | 0.00 | 0.00 | 0.00 | 61 | 1012.3 |
| 20260504203327 | 80 | 205 | 4.3 | 6.1 | 0.00 | 0.00 | 0.00 | 61 | 1012.2 |
| 20260504202822 | 79 | 190 | 7.8 | 8.7 | 0.00 | 0.00 | 0.00 | 61 | 1012.6 |
| 20260504202320 | 80 | 131 | 5.2 | 6.1 | 0.00 | 0.00 | 0.00 | 62 | 1012.7 |
| 20260504201817 | 80 | 174 | 6.1 | 6.1 | 0.00 | 0.00 | 0.00 | 62 | 1012.7 |
| 20260504201314 | 80 | 181 | 7.8 | 8.7 | 0.00 | 0.00 | 0.00 | 60 | 1012.8 |
| 20260504200812 | 80 | 192 | 9.6 | 13.0 | 0.00 | 0.00 | 0.00 | 62 | 1012.9 |
| 20260504200308 | 79 | 153 | 9.6 | 11.3 | 0.00 | 0.00 | 0.00 | 62 | 1013.0 |
| 20260504195804 | 80 | 179 | 4.3 | 6.1 | 0.00 | 0.00 | 0.00 | 63 | 1013.1 |
| 20260504195300 | 80 | 198 | 9.6 | 11.3 | 0.00 | 0.00 | 0.00 | 61 | 1013.1 |
| 20260504194757 | 80 | 183 | 7.0 | 7.8 | 0.00 | 0.00 | 0.00 | 61 | 1013.4 |
| 20260504194253 | 79 | 176 | 11.3 | 15.6 | 0.00 | 0.00 | 0.00 | 62 | 1013.4 |
| 20260504193749 | 79 | 148 | 9.6 | 13.0 | 0.00 | 0.00 | 0.00 | 62 | 1013.7 |
| 20260504193247 | 79 | 186 | 3.5 | 5.2 | 0.00 | 0.00 | 0.00 | 63 | 1013.6 |
| 20260504192745 | 78 | 203 | 7.8 | 8.7 | 0.00 | 0.00 | 0.00 | 63 | 1013.6 |
| 20260504192243 | 78 | 184 | 8.7 | 11.3 | 0.00 | 0.00 | 0.00 | 64 | 1013.9 |
| 20260504191742 | 79 | 187 | 4.3 | 6.1 | 0.00 | 0.00 | 0.00 | 62 | 1013.8 |
| 20260504191238 | 78 | 211 | 5.2 | 6.1 | 0.00 | 0.00 | 0.00 | 64 | 1014.0 |
| 20260504190733 | 78 | 199 | 8.7 | 12.2 | 0.00 | 0.00 | 0.00 | 63 | 1014.1 |
| 20260504190230 | 78 | 176 | 10.4 | 12.2 | 0.00 | 0.00 | 0.00 | 63 | 1014.1 |
| 20260504185726 | 78 | 175 | 11.3 | 16.5 | 0.00 | 0.00 | 0.00 | 64 | 1014.0 |
| 20260504185224 | 78 | 151 | 12.2 | 15.6 | 0.00 | 0.00 | 0.00 | 64 | 1014.2 |
| 20260504184720 | 78 | 174 | 12.2 | 13.9 | 0.00 | 0.00 | 0.00 | 64 | 1014.2 |
| 20260504184216 | 77 | 195 | 7.8 | 11.3 | 0.00 | 0.00 | 0.00 | 65 | 1014.2 |
| 20260504183711 | 77 | 172 | 7.8 | 12.2 | 0.00 | 0.00 | 0.00 | 65 | 1014.4 |
| 20260504183209 | 77 | 183 | 7.0 | 7.8 | 0.00 | 0.00 | 0.00 | 67 | 1014.4 |
| 20260504182707 | 77 | 184 | 7.8 | 8.7 | 0.00 | 0.00 | 0.00 | 66 | 1014.6 |
| 20260504182204 | 76 | 181 | 7.0 | 7.0 | 0.00 | 0.00 | 0.00 | 67 | 1014.7 |
| 20260504181701 | 76 | 109 | 5.2 | 6.1 | 0.00 | 0.00 | 0.00 | 67 | 1014.8 |
| 20260504181159 | 76 | 169 | 5.2 | 9.6 | 0.00 | 0.00 | 0.00 | 68 | 1014.7 |
| 20260504180658 | 76 | 135 | 4.3 | 7.0 | 0.00 | 0.00 | 0.00 | 68 | 1014.9 |
| 20260504180156 | 76 | 135 | 5.2 | 7.0 | 0.00 | 0.00 | 0.00 | 67 | 1015.0 |
| 20260504175653 | 75 | 167 | 6.1 | 9.6 | 0.00 | 0.00 | 0.00 | 68 | 1014.9 |
| 20260504175149 | 75 | 179 | 8.7 | 9.6 | 0.00 | 0.00 | 0.00 | 69 | 1015.2 |
| 20260504174648 | 74 | 137 | 10.4 | 13.9 | 0.00 | 0.00 | 0.00 | 70 | 1015.2 |
| 20260504174144 | 74 | 114 | 7.8 | 9.6 | 0.00 | 0.00 | 0.00 | 70 | 1015.2 |
| 20260504173641 | 74 | 195 | 11.3 | 14.8 | 0.00 | 0.00 | 0.00 | 71 | 1015.5 |
| 20260504173138 | 73 | 210 | 6.1 | 7.8 | 0.00 | 0.00 | 0.00 | 71 | 1015.6 |
| 20260504172635 | 73 | 192 | 7.0 | 9.6 | 0.00 | 0.00 | 0.00 | 72 | 1015.8 |
| 20260504172131 | 73 | 121 | 10.4 | 13.0 | 0.00 | 0.00 | 0.00 | 72 | 1015.7 |
| 20260504171628 | 73 | 200 | 8.7 | 12.2 | 0.00 | 0.00 | 0.00 | 73 | 1015.9 |
| 20260504171125 | 73 | 145 | 10.4 | 11.3 | 0.00 | 0.00 | 0.00 | 72 | 1016.0 |
| 20260504170621 | 73 | 210 | 6.1 | 9.6 | 0.00 | 0.00 | 0.00 | 71 | 1015.8 |
| 20260504170119 | 73 | 189 | 7.8 | 9.6 | 0.00 | 0.00 | 0.00 | 70 | 1015.9 |
| 20260504151004 | 69 | 157 | 12.2 | 13.9 | 0.00 | 0.00 | 0.00 | 75 | 1016.6 |
| 20260504150502 | 70 | 163 | 7.8 | 9.6 | 0.00 | 0.00 | 0.00 | 75 | 1016.5 |
| 20260504140928 | 66 | 208 | 6.1 | 7.0 | 0.00 | 0.00 | 0.00 | 77 | 1016.7 |
| 20260504140424 | 66 | 217 | 5.2 | 6.1 | 0.00 | 0.00 | 0.00 | 77 | 1016.7 |
| 20260504130349 | 63 | 115 | 3.5 | 5.2 | 0.00 | 0.00 | 0.00 | 81 | 1016.6 |
| 20260504120312 | 61 | 190 | 1.7 | 2.6 | 0.00 | 0.00 | 0.00 | 84 | 1015.8 |
| 20260504110236 | 61 | 173 | 5.2 | 7.0 | 0.00 | 0.00 | 0.00 | 82 | 1016.1 |
| 20260504100154 | 62 | 147 | 4.3 | 5.2 | 0.00 | 0.00 | 0.00 | 81 | 1016.5 |
| 20260504090117 | 62 | 173 | 8.7 | 11.3 | 0.00 | 0.00 | 0.00 | 79 | 1016.7 |
| 20260504081547 | 63 | 200 | 4.3 | 6.1 | 0.00 | 0.00 | 0.00 | 77 | 1016.9 |
| 20260504081043 | 64 | 212 | 2.6 | 2.6 | 0.00 | 0.00 | 0.00 | 76 | 1017.0 |
| 20260504080540 | 64 | 172 | 7.0 | 7.8 | 0.00 | 0.00 | 0.00 | 76 | 1016.8 |
| 20260504050352 | 66 | 143 | 4.3 | 5.2 | 0.00 | 0.00 | 0.00 | 66 | 1019.0 |
| 20260504045849 | 66 | 203 | 3.5 | 3.5 | 0.00 | 0.00 | 0.00 | 65 | 1019.0 |
| 20260504045344 | 66 | 157 | 5.2 | 7.8 | 0.00 | 0.00 | 0.00 | 65 | 1018.9 |
| 20260504044841 | 66 | 209 | 6.1 | 7.8 | 0.00 | 0.00 | 0.00 | 64 | 1019.1 |
| 20260504044339 | 66 | 188 | 7.0 | 11.3 | 0.00 | 0.00 | 0.00 | 63 | 1019.2 |
| 20260504043836 | 67 | 118 | 3.5 | 6.1 | 0.00 | 0.00 | 0.00 | 63 | 1019.3 |
| 20260504043333 | 67 | 162 | 3.5 | 3.5 | 0.00 | 0.00 | 0.00 | 62 | 1019.1 |
| 20260504042830 | 67 | 140 | 7.0 | 9.6 | 0.00 | 0.00 | 0.00 | 61 | 1019.0 |
| 20260504042326 | 67 | 151 | 4.3 | 6.1 | 0.00 | 0.00 | 0.00 | 61 | 1019.1 |
| 20260504041823 | 67 | 149 | 5.2 | 7.0 | 0.00 | 0.00 | 0.00 | 60 | 1019.2 |
| 20260504041319 | 68 | 163 | 7.0 | 11.3 | 0.00 | 0.00 | 0.00 | 59 | 1019.3 |
| 20260504040815 | 68 | 153 | 4.3 | 6.1 | 0.00 | 0.00 | 0.00 | 58 | 1019.3 |
| 20260504040313 | 68 | 98 | 7.0 | 8.7 | 0.00 | 0.00 | 0.00 | 57 | 1019.2 |
| 20260504035809 | 68 | 154 | 8.7 | 9.6 | 0.00 | 0.00 | 0.00 | 56 | 1019.4 |
| 20260504035306 | 68 | 101 | 5.2 | 7.8 | 0.00 | 0.00 | 0.00 | 56 | 1019.2 |
| 20260504034803 | 69 | 155 | 8.7 | 9.6 | 0.00 | 0.00 | 0.00 | 55 | 1019.2 |
| 20260504034301 | 69 | 133 | 4.3 | 6.1 | 0.00 | 0.00 | 0.00 | 54 | 1019.2 |
| 20260504033758 | 68 | 151 | 3.5 | 3.5 | 0.00 | 0.00 | 0.00 | 54 | 1019.4 |
| 20260504033256 | 68 | 156 | 2.6 | 5.2 | 0.00 | 0.00 | 0.00 | 54 | 1019.0 |
| 20260504032752 | 68 | 114 | 3.5 | 5.2 | 0.00 | 0.00 | 0.00 | 55 | 1019.1 |
| 20260504032249 | 68 | 98 | 2.6 | 2.6 | 0.00 | 0.00 | 0.00 | 55 | 1019.0 |
| 20260504031746 | 68 | 157 | 1.7 | 2.6 | 0.00 | 0.00 | 0.00 | 55 | 1019.0 |
| 20260504031243 | 68 | 148 | 2.6 | 2.6 | 0.00 | 0.00 | 0.00 | 55 | 1019.1 |
| 20260504030739 | 69 | 145 | 2.6 | 2.6 | 0.00 | 0.00 | 0.00 | 55 | 1019.0 |
| 20260504030237 | 69 | 135 | 1.7 | 2.6 | 0.00 | 0.00 | 0.00 | 55 | 1019.0 |
| 20260504025733 | 69 | 117 | 1.7 | 1.7 | 0.00 | 0.00 | 0.00 | 54 | 1019.0 |
| 20260504025230 | 69 | 109 | 1.7 | 1.7 | 0.00 | 0.00 | 0.00 | 54 | 1018.8 |
| 20260504024727 | 69 | 108 | 0.9 | 1.7 | 0.00 | 0.00 | 0.00 | 53 | 1019.2 |
| 20260504024223 | 69 | 153 | 1.7 | 1.7 | 0.00 | 0.00 | 0.00 | 52 | 1018.9 |
| 20260504023720 | 70 | 95 | 1.7 | 2.6 | 0.00 | 0.00 | 0.00 | 51 | 1019.1 |
| 20260504023216 | 70 | 136 | 1.7 | 1.7 | 0.00 | 0.00 | 0.00 | 50 | 1018.8 |
| 20260504022712 | 70 | 155 | 2.6 | 2.6 | 0.00 | 0.00 | 0.00 | 49 | 1018.9 |
| 20260504022208 | 70 | 136 | 1.7 | 2.6 | 0.00 | 0.00 | 0.00 | 49 | 1019.0 |
| 20260504021706 | 71 | 156 | 3.5 | 3.5 | 0.00 | 0.00 | 0.00 | 48 | 1019.2 |
| 20260504021203 | 71 | 156 | 1.7 | 1.7 | 0.00 | 0.00 | 0.00 | 48 | 1019.0 |
| 20260504020700 | 71 | 118 | 2.6 | 3.5 | 0.00 | 0.00 | 0.00 | 48 | 1018.8 |
| 20260504020155 | 71 | 161 | 1.7 | 2.6 | 0.00 | 0.00 | 0.00 | 47 | 1018.8 |
| 20260504015652 | 71 | 167 | 2.6 | 2.6 | 0.00 | 0.00 | 0.00 | 46 | 1018.5 |
| 20260504015149 | 72 | 121 | 0.9 | 1.7 | 0.00 | 0.00 | 0.00 | 46 | 1018.4 |
| 20260504014644 | 72 | 148 | 2.6 | 3.5 | 0.00 | 0.00 | 0.00 | 45 | 1018.4 |
| 20260504014142 | 72 | 153 | 2.6 | 2.6 | 0.00 | 0.00 | 0.00 | 45 | 1018.5 |
| 20260504013640 | 73 | 144 | 2.6 | 2.6 | 0.00 | 0.00 | 0.00 | 44 | 1018.5 |
| 20260504013136 | 73 | 127 | 2.6 | 2.6 | 0.00 | 0.00 | 0.00 | 44 | 1018.3 |
| 20260504012633 | 73 | 147 | 1.7 | 2.6 | 0.00 | 0.00 | 0.00 | 43 | 1018.5 |
| 20260504012132 | 73 | 157 | 2.6 | 2.6 | 0.00 | 0.00 | 0.00 | 43 | 1018.3 |
| 20260504011628 | 73 | 160 | 2.6 | 2.6 | 0.00 | 0.00 | 0.00 | 42 | 1018.6 |
| 20260504011125 | 73 | 143 | 3.5 | 5.2 | 0.00 | 0.00 | 0.00 | 42 | 1018.6 |
| 20260504010620 | 73 | 133 | 4.3 | 5.2 | 0.00 | 0.00 | 0.00 | 41 | 1018.4 |
| 20260504010116 | 74 | 136 | 2.6 | 2.6 | 0.00 | 0.00 | 0.00 | 42 | 1018.5 |
| 20260504005613 | 74 | 179 | 5.2 | 7.8 | 0.00 | 0.00 | 0.00 | 41 | 1018.5 |
| 20260504005110 | 74 | 145 | 3.5 | 3.5 | 0.00 | 0.00 | 0.00 | 41 | 1018.4 |
| 20260504004608 | 74 | 140 | 5.2 | 7.0 | 0.00 | 0.00 | 0.00 | 41 | 1018.4 |
| 20260504004105 | 74 | 191 | 3.5 | 6.1 | 0.00 | 0.00 | 0.00 | 41 | 1018.5 |
| 20260504003601 | 74 | 152 | 5.2 | 6.1 | 0.00 | 0.00 | 0.00 | 41 | 1018.5 |
| 20260504003058 | 75 | 130 | 5.2 | 6.1 | 0.00 | 0.00 | 0.00 | 42 | 1018.5 |
| 20260504002555 | 75 | 121 | 2.6 | 2.6 | 0.00 | 0.00 | 0.00 | 42 | 1018.5 |
| 20260504002053 | 75 | 130 | 3.5 | 3.5 | 0.00 | 0.00 | 0.00 | 42 | 1018.8 |
| 20260504001550 | 75 | 162 | 4.3 | 5.2 | 0.00 | 0.00 | 0.00 | 41 | 1018.7 |
| 20260504001046 | 75 | 186 | 5.2 | 7.0 | 0.00 | 0.00 | 0.00 | 42 | 1018.6 |
| 20260504000543 | 75 | 204 | 1.7 | 2.6 | 0.00 | 0.00 | 0.00 | 43 | 1018.9 |
| 20260504000041 | 75 | 91 | 3.5 | 5.2 | 0.00 | 0.00 | 0.00 | 43 | 1018.9 |
| 20260503235539 | 75 | 167 | 5.2 | 6.1 | 0.00 | 0.00 | 0.00 | 42 | 1019.0 |
| 20260503235036 | 75 | 182 | 7.0 | 9.6 | 0.00 | 0.00 | 0.00 | 41 | 1018.9 |
| 20260503234533 | 76 | 203 | 5.2 | 7.0 | 0.00 | 0.00 | 0.00 | 42 | 1018.9 |
| 20260503234031 | 76 | 115 | 4.3 | 6.1 | 0.00 | 0.00 | 0.00 | 41 | 1018.9 |
| 20260503233527 | 76 | 110 | 1.7 | 2.6 | 0.00 | 0.00 | 0.00 | 42 | 1019.0 |
| 20260503233023 | 76 | 174 | 3.5 | 3.5 | 0.00 | 0.00 | 0.00 | 42 | 1019.0 |
| 20260503232521 | 76 | 178 | 2.6 | 3.5 | 0.00 | 0.00 | 0.00 | 41 | 1019.0 |